Location: Vinland
(47.7731°N, 122.6974°W)
Time: 23:55:12
(UTC+00:00)

Tiros 1 - Pass Details

Date: 31 March 2023
Orbit: 627 x 660 km, 48.4° (Epoch: 28 May)

Event Time Altitude Azimuth Distance (km) Brightness Sun altitude
Exits shadow 10:55:02 26° 123° (ESE) 1,300 8.8 -27.4°
Drops below altitude 10° 10:58:07 10° 86° (E) 2,077 10.4 -27.0°
Sets 11:00:44 0° 75° (ENE) 2,993 11.5 -26.7°
